Time,TemperatureF,DewpointF,PressureIn,WindDirection,WindDirectionDegrees,WindSpeedMPH,WindSpeedGustMPH,Humidity,HourlyPrecipIn,Conditions,Clouds,dailyrainin,SoftwareType,DateUTC
2013-07-01 00:04:00,57.9,46.5,30.04,WNW,293,4.9,10.0,66,0.00,,,0.00,WUHU216HW,2013-06-30 22:04:00,
2013-07-01 00:09:00,57.7,46.4,30.04,WNW,293,5.3,10.0,66,0.00,,,0.00,WUHU216HW,2013-06-30 22:09:00,
2013-07-01 00:14:00,57.5,46.6,30.05,NE,45,0.8,11.1,67,0.00,,,0.00,WUHU216HW,2013-06-30 22:14:00,
2013-07-01 00:19:00,57.5,46.6,30.04,NNE,23,0.0,11.1,67,0.00,,,0.00,WUHU216HW,2013-06-30 22:19:00,
2013-07-01 00:24:00,57.2,46.4,30.04,ESE,113,2.2,9.3,67,0.00,,,0.00,WUHU216HW,2013-06-30 22:24:00,
2013-07-01 00:29:00,56.4,46.0,30.05,SW,225,0.0,2.4,68,0.00,,,0.00,WUHU216HW,2013-06-30 22:29:00,
2013-07-01 00:34:00,55.7,46.1,30.05,NW,315,0.8,2.9,70,0.00,,,0.00,WUHU216HW,2013-06-30 22:34:00,
2013-07-01 00:39:00,55.5,46.0,30.05,ENE,68,0.0,4.2,70,0.00,,,0.00,WUHU216HW,2013-06-30 22:39:00,
2013-07-01 00:44:00,55.5,45.8,30.05,East,90,0.0,4.2,70,0.00,,,0.00,WUHU216HW,2013-06-30 22:44:00,
2013-07-01 00:49:00,55.2,46.0,30.05,SE,135,0.0,1.7,71,0.00,,,0.00,WUHU216HW,2013-06-30 22:49:00,
2013-07-01 00:54:00,54.6,45.8,30.05,North,0,0.0,1.1,72,0.00,,,0.00,WUHU216HW,2013-06-30 22:54:00,
2013-07-01 00:59:00,54.6,45.8,30.05,NNW,338,0.0,3.1,72,0.00,,,0.00,WUHU216HW,2013-06-30 22:59:00,
2013-07-01 01:04:00,54.3,45.8,30.04,NNE,23,0.0,3.1,73,0.00,,,0.00,WUHU216HW,2013-06-30 23:04:00,
2013-07-01 01:09:00,54.3,45.8,30.04,East,90,0.0,2.4,73,0.00,,,0.00,WUHU216HW,2013-06-30 23:09:00,
2013-07-01 01:14:00,54.1,46.0,30.04,SSE,158,1.3,4.2,74,0.00,,,0.00,WUHU216HW,2013-06-30 23:14:00,
2013-07-01 01:19:00,54.5,46.0,30.04,SSE,158,3.5,4.2,73,0.00,,,0.00,WUHU216HW,2013-06-30 23:19:00,
2013-07-01 01:24:00,54.1,46.0,30.04,ENE,68,0.8,3.5,74,0.00,,,0.00,WUHU216HW,2013-06-30 23:24:00,
2013-07-01 01:29:00,53.7,45.6,30.04,ESE,113,2.6,4.4,74,0.00,,,0.00,WUHU216HW,2013-06-30 23:29:00,
2013-07-01 01:34:00,53.7,45.6,30.04,SSE,158,0.0,4.4,74,0.00,,,0.00,WUHU216HW,2013-06-30 23:34:00,
2013-07-01 01:39:00,53.4,45.6,30.04,SW,225,0.0,2.2,75,0.00,,,0.00,WUHU216HW,2013-06-30 23:39:00,
2013-07-01 01:44:00,53.4,45.5,30.04,SSE,158,3.5,3.5,75,0.00,,,0.00,WUHU216HW,2013-06-30 23:44:00,
2013-07-01 01:49:00,52.8,45.5,30.04,NNW,338,0.0,3.5,76,0.00,,,0.00,WUHU216HW,2013-06-30 23:49:00,
2013-07-01 01:54:00,52.8,45.5,30.04,NW,315,0.0,1.5,76,0.00,,,0.00,WUHU216HW,2013-06-30 23:54:00,
2013-07-01 01:59:00,52.3,44.9,30.04,South,180,2.2,2.2,76,0.00,,,0.00,WUHU216HW,2013-06-30 23:59:00,
2013-07-01 02:04:00,51.6,44.6,30.04,SSE,158,3.5,3.5,77,0.00,,,0.00,WUHU216HW,2013-07-01 00:04:00,
2013-07-01 02:09:00,51.6,44.6,30.04,SSW,203,2.0,3.5,77,0.00,,,0.00,WUHU216HW,2013-07-01 00:09:00,
2013-07-01 02:14:00,51.4,44.8,30.04,West,270,3.1,5.1,78,0.00,,,0.00,WUHU216HW,2013-07-01 00:14:00,
2013-07-01 02:19:00,51.2,44.6,30.04,North,0,0.0,5.1,78,0.00,,,0.00,WUHU216HW,2013-07-01 00:19:00,
2013-07-01 02:24:00,50.7,44.4,30.04,ENE,68,0.0,2.9,79,0.00,,,0.00,WUHU216HW,2013-07-01 00:24:00,
2013-07-01 02:29:00,50.1,43.8,30.04,South,180,0.8,0.8,79,0.00,,,0.00,WUHU216HW,2013-07-01 00:29:00,
2013-07-01 02:34:00,49.8,43.8,30.04,East,90,0.0,0.8,80,0.00,,,0.00,WUHU216HW,2013-07-01 00:34:00,
2013-07-01 02:39:00,49.6,43.5,30.04,SW,225,0.0,0.8,80,0.00,,,0.00,WUHU216HW,2013-07-01 00:39:00,
2013-07-01 02:45:00,49.2,43.6,30.04,SW,225,3.3,3.3,81,0.00,,,0.00,WUHU216HW,2013-07-01 00:45:00,
2013-07-01 02:50:00,49.6,44.0,30.04,SW,225,1.5,3.3,81,0.00,,,0.00,WUHU216HW,2013-07-01 00:50:00,
2013-07-01 02:55:00,50.1,44.5,30.04,WSW,248,2.4,4.4,81,0.00,,,0.00,WUHU216HW,2013-07-01 00:55:00,
2013-07-01 03:00:00,50.9,45.2,30.04,WNW,293,0.8,5.3,81,0.00,,,0.00,WUHU216HW,2013-07-01 01:00:00,
2013-07-01 03:05:00,51.0,45.1,30.04,West,270,0.8,5.3,80,0.00,,,0.00,WUHU216HW,2013-07-01 01:05:00,
2013-07-01 03:10:00,50.7,44.6,30.04,West,270,0.0,2.2,79,0.00,,,0.00,WUHU216HW,2013-07-01 01:10:00,
2013-07-01 03:15:00,50.3,44.4,30.03,North,0,0.0,2.0,80,0.00,,,0.00,WUHU216HW,2013-07-01 01:15:00,
2013-07-01 03:20:00,49.6,43.7,30.03,WSW,248,0.0,2.0,80,0.00,,,0.00,WUHU216HW,2013-07-01 01:20:00,
2013-07-01 03:25:00,49.2,43.6,30.04,West,270,0.0,1.3,81,0.00,,,0.00,WUHU216HW,2013-07-01 01:25:00,
2013-07-01 03:30:00,48.7,43.1,30.04,WSW,248,0.0,2.2,81,0.00,,,0.00,WUHU216HW,2013-07-01 01:30:00,
2013-07-01 03:35:00,48.3,43.0,30.04,WSW,248,4.0,4.0,82,0.00,,,0.00,WUHU216HW,2013-07-01 01:35:00,
2013-07-01 03:40:00,48.3,43.3,30.04,SW,225,1.1,4.0,83,0.00,,,0.00,WUHU216HW,2013-07-01 01:40:00,
2013-07-01 03:45:00,48.2,43.2,30.04,North,0,0.0,1.1,83,0.00,,,0.00,WUHU216HW,2013-07-01 01:45:00,
2013-07-01 03:50:00,48.0,43.0,30.04,NNE,23,0.0,1.1,83,0.00,,,0.00,WUHU216HW,2013-07-01 01:50:00,
2013-07-01 03:55:00,47.8,43.2,30.04,West,270,0.0,0.8,84,0.00,,,0.00,WUHU216HW,2013-07-01 01:55:00,
2013-07-01 04:00:00,47.6,43.0,30.03,NNW,338,1.3,2.2,84,0.00,,,0.00,WUHU216HW,2013-07-01 02:00:00,
2013-07-01 04:05:00,47.4,42.8,30.03,WNW,293,0.0,4.4,84,0.00,,,0.00,WUHU216HW,2013-07-01 02:05:00,
2013-07-01 04:10:00,47.4,42.8,30.03,SSW,203,0.0,4.4,84,0.00,,,0.00,WUHU216HW,2013-07-01 02:10:00,
2013-07-01 04:15:00,47.4,43.1,30.04,NNW,338,0.0,0.0,85,0.00,,,0.00,WUHU216HW,2013-07-01 02:15:00,
2013-07-01 04:20:00,47.1,42.8,30.04,ESE,113,0.0,1.3,85,0.00,,,0.00,WUHU216HW,2013-07-01 02:20:00,
2013-07-01 04:25:00,47.1,42.8,30.04,SSW,203,1.7,1.7,85,0.00,,,0.00,WUHU216HW,2013-07-01 02:25:00,
2013-07-01 04:30:00,47.3,43.0,30.03,SSE,158,0.0,2.6,85,0.00,,,0.00,WUHU216HW,2013-07-01 02:30:00,
2013-07-01 04:35:00,47.3,43.0,30.03,SW,225,0.8,2.6,85,0.00,,,0.00,WUHU216HW,2013-07-01 02:35:00,
2013-07-01 04:40:00,47.1,42.8,30.04,SSW,203,0.8,1.1,85,0.00,,,0.00,WUHU216HW,2013-07-01 02:40:00,
2013-07-01 04:45:00,47.3,43.3,30.04,NNE,23,0.0,0.8,86,0.00,,,0.00,WUHU216HW,2013-07-01 02:45:00,
2013-07-01 04:50:00,47.4,43.5,30.04,SSW,203,0.8,6.2,86,0.00,,,0.00,WUHU216HW,2013-07-01 02:50:00,
2013-07-01 04:55:00,47.8,43.8,30.04,WNW,293,0.0,6.2,86,0.00,,,0.00,WUHU216HW,2013-07-01 02:55:00,
2013-07-01 05:00:00,48.0,44.0,30.03,West,270,0.0,4.0,86,0.00,,,0.00,WUHU216HW,2013-07-01 03:00:00,
2013-07-01 05:05:00,48.0,44.0,30.04,WSW,248,0.0,4.0,86,0.00,,,0.00,WUHU216HW,2013-07-01 03:05:00,
2013-07-01 05:10:00,48.0,44.0,30.04,SSW,203,0.0,2.6,86,0.00,,,0.00,WUHU216HW,2013-07-01 03:10:00,
2013-07-01 05:15:00,48.2,44.2,30.04,WSW,248,1.7,5.8,86,0.00,,,0.00,WUHU216HW,2013-07-01 03:15:00,
2013-07-01 05:20:00,48.7,44.7,30.04,SSW,203,2.6,5.8,86,0.00,,,0.00,WUHU216HW,2013-07-01 03:20:00,
2013-07-01 05:25:00,49.6,45.2,30.04,West,270,1.5,4.6,86,0.00,,,0.00,WUHU216HW,2013-07-01 03:25:00,
2013-07-01 05:30:00,49.8,45.4,30.04,ESE,113,0.0,4.4,85,0.00,,,0.00,WUHU216HW,2013-07-01 03:30:00,
2013-07-01 05:35:00,49.8,45.4,30.04,WSW,248,0.0,4.0,85,0.00,,,0.00,WUHU216HW,2013-07-01 03:35:00,
2013-07-01 05:40:00,50.1,45.7,30.04,SE,135,1.3,1.3,85,0.00,,,0.00,WUHU216HW,2013-07-01 03:40:00,
2013-07-01 05:45:00,50.1,45.7,30.04,SW,225,1.5,1.5,85,0.00,,,0.00,WUHU216HW,2013-07-01 03:45:00,
2013-07-01 05:50:00,50.7,46.3,30.04,East,90,0.0,1.5,85,0.00,,,0.00,WUHU216HW,2013-07-01 03:50:00,
2013-07-01 05:55:00,51.0,46.6,30.04,East,90,0.0,1.3,85,0.00,,,0.00,WUHU216HW,2013-07-01 03:55:00,
2013-07-01 06:00:00,51.6,46.9,30.05,SSE,158,0.0,1.3,84,0.00,,,0.00,WUHU216HW,2013-07-01 04:00:00,
2013-07-01 06:05:00,51.9,47.2,30.05,East,90,0.0,0.0,84,0.00,,,0.00,WUHU216HW,2013-07-01 04:05:00,
2013-07-01 06:10:00,52.7,47.9,30.05,SSE,158,1.5,2.0,84,0.00,,,0.00,WUHU216HW,2013-07-01 04:10:00,
2013-07-01 06:15:00,53.4,48.7,30.05,SSE,158,0.0,2.0,84,0.00,,,0.00,WUHU216HW,2013-07-01 04:15:00,
2013-07-01 06:20:00,53.7,48.5,30.05,ESE,113,0.0,1.5,82,0.00,,,0.00,WUHU216HW,2013-07-01 04:20:00,
2013-07-01 06:25:00,54.3,48.9,30.06,SSE,158,0.0,1.5,82,0.00,,,0.00,WUHU216HW,2013-07-01 04:25:00,
2013-07-01 06:30:00,54.6,48.9,30.05,NNE,23,0.0,1.5,81,0.00,,,0.00,WUHU216HW,2013-07-01 04:30:00,
2013-07-01 06:35:00,55.5,49.1,30.06,North,0,0.6,0.6,79,0.00,,,0.00,WUHU216HW,2013-07-01 04:35:00,
2013-07-01 06:40:00,55.9,49.4,30.06,North,0,0.0,1.3,79,0.00,,,0.00,WUHU216HW,2013-07-01 04:40:00,
2013-07-01 06:45:00,56.4,49.2,30.06,NW,315,0.6,1.3,76,0.00,,,0.00,WUHU216HW,2013-07-01 04:45:00,
2013-07-01 14:13:00,73.9,51.7,30.03,NNE,23,0.0,0.0,46,0.00,,,0.00,WUHU216HW,2013-07-01 12:13:00,
2013-07-01 14:23:00,74.1,52.5,30.03,NNW,338,9.1,11.4,47,0.00,,,0.00,WUHU216HW,2013-07-01 12:23:00,
2013-07-01 14:28:00,74.6,51.8,30.03,NNW,338,4.6,11.6,45,0.00,,,0.00,WUHU216HW,2013-07-01 12:28:00,
2013-07-01 14:33:00,73.5,50.7,30.04,NNE,23,0.0,11.6,45,0.00,,,0.00,WUHU216HW,2013-07-01 12:33:00,
2013-07-01 14:38:00,73.2,51.6,30.04,NNE,23,0.8,7.8,47,0.00,,,0.00,WUHU216HW,2013-07-01 12:38:00,
2013-07-01 14:43:00,73.5,51.9,30.05,NNE,23,0.0,8.9,47,0.00,,,0.00,WUHU216HW,2013-07-01 12:43:00,
2013-07-01 14:48:00,73.9,52.3,30.06,ENE,68,4.4,8.9,47,0.00,,,0.00,WUHU216HW,2013-07-01 12:48:00,
2013-07-01 14:53:00,73.9,51.7,30.07,NNW,338,3.1,10.7,46,0.00,,,0.00,WUHU216HW,2013-07-01 12:53:00,
2013-07-01 14:58:00,72.8,50.7,30.07,North,0,7.6,12.9,46,0.00,,,0.00,WUHU216HW,2013-07-01 12:58:00,
2013-07-01 15:03:00,72.5,51.6,30.08,NW,315,3.5,12.9,48,0.00,,,0.00,WUHU216HW,2013-07-01 13:03:00,
2013-07-01 15:08:00,72.3,50.2,30.08,NNW,338,8.7,17.6,46,0.00,,,0.00,WUHU216HW,2013-07-01 13:08:00,
2013-07-01 15:13:00,73.0,50.9,30.07,NNW,338,3.3,17.6,46,0.00,,,0.00,WUHU216HW,2013-07-01 13:13:00,
2013-07-01 15:18:00,73.7,52.1,30.08,NNE,23,5.8,10.2,47,0.00,,,0.00,WUHU216HW,2013-07-01 13:18:00,
2013-07-01 15:23:00,74.3,52.6,30.07,WNW,293,1.3,10.2,47,0.00,,,0.00,WUHU216HW,2013-07-01 13:23:00,
2013-07-01 15:28:00,73.5,51.9,30.08,NW,315,0.0,12.0,47,0.00,,,0.00,WUHU216HW,2013-07-01 13:28:00,
2013-07-01 15:33:00,74.1,51.3,30.07,NNW,338,5.1,12.0,46,0.00,,,0.00,WUHU216HW,2013-07-01 13:33:00,
2013-07-01 15:38:00,73.5,51.9,30.09,WNW,293,8.0,8.7,47,0.00,,,0.00,WUHU216HW,2013-07-01 13:38:00,
2013-07-01 15:43:00,74.3,52.0,30.08,NNW,338,9.1,9.1,46,0.00,,,0.00,WUHU216HW,2013-07-01 13:43:00,
2013-07-01 15:48:00,74.3,52.2,30.08,NW,315,4.0,9.6,46,0.00,,,0.00,WUHU216HW,2013-07-01 13:48:00,
2013-07-01 15:54:00,73.2,51.6,30.08,NW,315,7.6,9.6,47,0.00,,,0.00,WUHU216HW,2013-07-01 13:54:00,
2013-07-01 15:59:00,72.3,50.8,30.08,NE,45,0.0,7.6,47,0.00,,,0.00,WUHU216HW,2013-07-01 13:59:00,
2013-07-01 16:04:00,73.9,52.3,30.07,WNW,293,0.8,4.9,47,0.00,,,0.00,WUHU216HW,2013-07-01 14:04:00,
2013-07-01 16:09:00,74.1,52.0,30.08,NNE,23,5.5,10.0,46,0.00,,,0.00,WUHU216HW,2013-07-01 14:09:00,
2013-07-01 16:14:00,73.9,52.3,30.08,NNW,338,6.4,10.0,47,0.00,,,0.00,WUHU216HW,2013-07-01 14:14:00,
2013-07-01 16:19:00,73.0,51.6,30.08,North,0,3.5,11.8,47,0.00,,,0.00,WUHU216HW,2013-07-01 14:19:00,
2013-07-01 16:24:00,71.7,50.9,30.08,NNE,23,0.0,11.8,48,0.00,,,0.00,WUHU216HW,2013-07-01 14:24:00,
2013-07-01 16:29:00,72.6,50.5,30.08,NNW,338,8.9,11.1,46,0.00,,,0.00,WUHU216HW,2013-07-01 14:29:00,
2013-07-01 16:34:00,73.2,51.0,30.08,NNW,338,8.7,8.9,47,0.00,,,0.00,WUHU216HW,2013-07-01 14:34:00,
2013-07-01 16:39:00,73.2,51.6,30.08,WNW,293,2.9,8.7,47,0.00,,,0.00,WUHU216HW,2013-07-01 14:39:00,
2013-07-01 16:44:00,72.8,51.3,30.08,WNW,293,0.0,4.9,47,0.00,,,0.00,WUHU216HW,2013-07-01 14:44:00,
2013-07-01 16:49:00,72.6,51.7,30.08,NW,315,0.0,3.1,48,0.00,,,0.00,WUHU216HW,2013-07-01 14:49:00,
2013-07-01 16:54:00,72.3,52.0,30.08,West,270,4.4,8.0,49,0.00,,,0.00,WUHU216HW,2013-07-01 14:54:00,
2013-07-01 16:59:00,72.8,52.5,30.08,NW,315,0.0,8.0,49,0.00,,,0.00,WUHU216HW,2013-07-01 14:59:00,
2013-07-01 17:04:00,73.0,51.4,30.08,NNW,338,1.3,7.3,47,0.00,,,0.00,WUHU216HW,2013-07-01 15:04:00,
2013-07-01 17:09:00,72.3,51.4,30.08,NNW,338,1.5,8.9,48,0.00,,,0.00,WUHU216HW,2013-07-01 15:09:00,
2013-07-01 17:14:00,73.2,52.2,30.08,NW,315,7.6,8.9,48,0.00,,,0.00,WUHU216HW,2013-07-01 15:14:00,
2013-07-01 17:19:00,73.5,51.9,30.08,WNW,293,2.9,7.6,47,0.00,,,0.00,WUHU216HW,2013-07-01 15:19:00,
2013-07-01 17:24:00,73.5,51.3,30.08,WNW,293,5.8,6.7,46,0.00,,,0.00,WUHU216HW,2013-07-01 15:24:00,
2013-07-01 17:29:00,73.5,51.3,30.08,NNW,338,2.9,6.9,46,0.00,,,0.00,WUHU216HW,2013-07-01 15:29:00,
2013-07-01 17:34:00,73.2,51.0,30.09,NE,45,2.9,11.4,46,0.00,,,0.00,WUHU216HW,2013-07-01 15:34:00,
2013-07-01 17:39:00,73.2,51.0,30.09,NNW,338,1.7,11.4,46,0.00,,,0.00,WUHU216HW,2013-07-01 15:39:00,
2013-07-01 17:44:00,73.2,51.0,30.09,NNE,23,0.0,9.6,46,0.00,,,0.00,WUHU216HW,2013-07-01 15:44:00,
2013-07-01 17:49:00,73.2,51.0,30.09,NNW,338,0.0,8.5,46,0.00,,,0.00,WUHU216HW,2013-07-01 15:49:00,
2013-07-01 17:54:00,73.5,52.5,30.09,North,0,6.0,8.5,48,0.00,,,0.00,WUHU216HW,2013-07-01 15:54:00,
2013-07-01 17:59:00,74.1,52.5,30.09,NW,315,4.9,6.0,48,0.00,,,0.00,WUHU216HW,2013-07-01 15:59:00,
2013-07-01 18:04:00,73.9,52.3,30.09,WNW,293,2.0,4.9,47,0.00,,,0.00,WUHU216HW,2013-07-01 16:04:00,
2013-07-01 18:09:00,73.7,52.1,30.09,WNW,293,0.0,4.2,47,0.00,,,0.00,WUHU216HW,2013-07-01 16:09:00,
2013-07-01 18:14:00,73.5,51.9,30.09,West,270,0.8,5.8,47,0.00,,,0.00,WUHU216HW,2013-07-01 16:14:00,
2013-07-01 18:19:00,73.2,51.0,30.09,NNW,338,4.0,5.8,46,0.00,,,0.00,WUHU216HW,2013-07-01 16:19:00,
2013-07-01 18:24:00,72.8,51.3,30.09,NW,315,2.2,4.4,47,0.00,,,0.00,WUHU216HW,2013-07-01 16:24:00,
2013-07-01 18:29:00,72.8,52.5,30.09,North,0,0.0,4.4,49,0.00,,,0.00,WUHU216HW,2013-07-01 16:29:00,
2013-07-01 18:34:00,73.0,52.0,30.09,West,270,0.0,3.8,48,0.00,,,0.00,WUHU216HW,2013-07-01 16:34:00,
2013-07-01 18:39:00,72.3,50.8,30.09,NNW,338,1.5,5.1,47,0.00,,,0.00,WUHU216HW,2013-07-01 16:39:00,
2013-07-01 18:44:00,71.9,51.1,30.09,NNW,338,3.8,6.2,48,0.00,,,0.00,WUHU216HW,2013-07-01 16:44:00,
2013-07-01 18:49:00,71.7,51.5,30.09,WNW,293,0.0,6.2,49,0.00,,,0.00,WUHU216HW,2013-07-01 16:49:00,
2013-07-01 18:54:00,71.4,51.2,30.08,NW,315,4.0,4.4,49,0.00,,,0.00,WUHU216HW,2013-07-01 16:54:00,
2013-07-01 18:59:00,71.2,51.0,30.09,NW,315,3.8,4.4,49,0.00,,,0.00,WUHU216HW,2013-07-01 16:59:00,
2013-07-01 19:04:00,70.5,50.4,30.09,SW,225,0.0,3.8,49,0.00,,,0.00,WUHU216HW,2013-07-01 17:04:00,
2013-07-01 19:09:00,69.6,50.5,30.09,WNW,293,0.0,0.8,50,0.00,,,0.00,WUHU216HW,2013-07-01 17:09:00,
2013-07-01 19:14:00,68.5,49.3,30.09,NW,315,2.0,3.3,50,0.00,,,0.00,WUHU216HW,2013-07-01 17:14:00,
2013-07-01 19:19:00,67.8,49.2,30.09,WNW,293,0.0,3.3,51,0.00,,,0.00,WUHU216HW,2013-07-01 17:19:00,
2013-07-01 19:24:00,67.2,49.0,30.08,WNW,293,0.0,2.2,52,0.00,,,0.00,WUHU216HW,2013-07-01 17:24:00,
2013-07-01 19:29:00,66.7,49.0,30.08,WSW,248,1.7,1.7,53,0.00,,,0.00,WUHU216HW,2013-07-01 17:29:00,
2013-07-01 19:34:00,66.5,48.9,30.08,WNW,293,0.0,1.7,53,0.00,,,0.00,WUHU216HW,2013-07-01 17:34:00,
2013-07-01 19:39:00,66.3,49.2,30.08,WNW,293,0.0,2.2,54,0.00,,,0.00,WUHU216HW,2013-07-01 17:39:00,
2013-07-01 19:44:00,66.0,48.8,30.08,West,270,0.0,2.9,54,0.00,,,0.00,WUHU216HW,2013-07-01 17:44:00,
2013-07-01 19:49:00,65.6,49.0,30.07,WSW,248,1.3,2.9,55,0.00,,,0.00,WUHU216HW,2013-07-01 17:49:00,
2013-07-01 19:54:00,65.4,48.8,30.08,West,270,0.0,2.9,55,0.00,,,0.00,WUHU216HW,2013-07-01 17:54:00,
2013-07-01 19:59:00,65.1,48.9,30.08,WSW,248,1.7,2.9,56,0.00,,,0.00,WUHU216HW,2013-07-01 17:59:00,
2013-07-01 20:04:00,64.7,49.0,30.07,West,270,0.0,1.7,57,0.00,,,0.00,WUHU216HW,2013-07-01 18:04:00,
2013-07-01 20:09:00,64.2,48.5,30.07,West,270,0.0,0.0,57,0.00,,,0.00,WUHU216HW,2013-07-01 18:09:00,
2013-07-01 20:14:00,64.0,48.3,30.07,WNW,293,0.0,3.1,57,0.00,,,0.00,WUHU216HW,2013-07-01 18:14:00,
2013-07-01 20:19:00,64.0,48.3,30.08,West,270,0.0,3.1,57,0.00,,,0.00,WUHU216HW,2013-07-01 18:19:00,
2013-07-01 20:24:00,63.8,48.7,30.08,West,270,0.0,3.1,58,0.00,,,0.00,WUHU216HW,2013-07-01 18:24:00,
2013-07-01 20:30:00,63.6,48.5,30.07,WSW,248,0.0,2.9,58,0.00,,,0.00,WUHU216HW,2013-07-01 18:30:00,
2013-07-01 20:35:00,63.3,48.2,30.08,WNW,293,0.0,1.1,58,0.00,,,0.00,WUHU216HW,2013-07-01 18:35:00,
2013-07-01 20:40:00,62.7,48.2,30.08,WNW,293,0.0,1.1,59,0.00,,,0.00,WUHU216HW,2013-07-01 18:40:00,
2013-07-01 20:45:00,62.2,48.2,30.08,WSW,248,0.0,1.1,60,0.00,,,0.00,WUHU216HW,2013-07-01 18:45:00,
2013-07-01 20:50:00,61.8,47.9,30.08,West,270,0.0,2.0,60,0.00,,,0.00,WUHU216HW,2013-07-01 18:50:00,
2013-07-01 20:55:00,62.0,48.0,30.09,NW,315,0.0,2.0,60,0.00,,,0.00,WUHU216HW,2013-07-01 18:55:00,
2013-07-01 21:00:00,61.7,48.4,30.09,NE,45,0.0,0.0,62,0.00,,,0.00,WUHU216HW,2013-07-01 19:00:00,
2013-07-01 21:05:00,60.8,47.7,30.09,WNW,293,0.0,0.0,62,0.00,,,0.00,WUHU216HW,2013-07-01 19:05:00,
2013-07-01 21:10:00,60.0,48.2,30.09,NW,315,0.0,0.0,65,0.00,,,0.00,WUHU216HW,2013-07-01 19:10:00,
2013-07-01 21:15:00,59.3,47.5,30.09,West,270,0.0,0.0,65,0.00,,,0.00,WUHU216HW,2013-07-01 19:15:00,
2013-07-01 22:13:00,62.6,48.2,30.12,WNW,293,2.2,2.2,59,0.00,,,0.00,WUHU216HW,2013-07-01 20:13:00,